Location: ????????
(38.4362°N, 22.8767°E)
Time: 19:19:31
(UTC+00:00)

Cosmos 1975 - Pass Details

Date: 23 April 2024
Orbit: 514 x 532 km, 82.5° (Epoch: 26 May)

Event Time Altitude Azimuth Distance (km) Brightness Sun altitude
Rises 23:40:48 0° 23° (NNE) 2,654 7.3 -36.1°
Enters shadow 23:44:28 - 61° (ENE) 1,970 6.2 -35.8°
Exits shadow 00:13:47 -52° 164° (SSE) 10,663 9.4 -33.1°
Reaches altitude 10° 01:17:35 10° 347° (NNW) 1,764 5.7 -25.2°
